Regional Weather Roundup
Issued by NWS

Home | Current Version | Previous Version | Text Only | Print | Product List | Glossary Off
Versions: 1 2 3 4 5 6 7 8 9 10 11 12 13 14 15 16 17 18 19 20 21 22 23 24 25 26 27 28 29 30 31 32 33 34 35 36 37 38 39 40 41 42 43 44 45 46 47 48 49 50

000
ASUS45 KSLC 311010
RWRUT

UTAH REGIONAL WEATHER ROUNDUP
NATIONAL WEATHER SERVICE SALT LAKE CITY UT
300 AM MST SAT JAN 31 2015

UTZ001>011-023>025-311100-

NORTHERN UTAH

CITY           SKY/WX    TMP DP  RH WIND       PRES   REMARKS
BRIGHAM CITY   CLOUDY    40  30  68 SW7       29.98R
HILL AFB       CLOUDY    38  30  73 E13       29.95S WCI  30
LOGAN          CLEAR     33  31  92 CALM      30.01S
OGDEN          CLOUDY    37  32  82 W5        29.95S WCI  33
PROVO AIRPORT  CLOUDY    39  34  81 E5        29.95S
SALT LAKE CITY CLOUDY    40  36  86 W5        29.96S
VERNAL         FOG       36  35  96 CALM      29.93S VSB 1/4
WENDOVER       CLOUDY    41  27  56 NE3       30.00F
HEBER CITY     MIX PCPN  32  32 100 CALM      29.97S
WEST JORDAN    CLOUDY    39  37  93 NW8       29.96S WCI  34

$$

UTZ012>022-026-027-311100-

SOUTHERN/CENTRAL UTAH

CITY           SKY/WX    TMP DP  RH WIND       PRES   REMARKS
BLANDING       CLOUDY    32  32 100 NW3       29.98S
BRYCE CANYON   CLOUDY    30  29  96 NE5       29.90F WCI  25
CEDAR CITY     CLOUDY    36  34  92 N3        29.89S
DELTA          CLOUDY    37  37  97 N10       29.93S WCI  30
HANKSVILLE     CLOUDY    37  37 100 CALM      29.94F
MILFORD        LGT RAIN  37  35  92 N9        29.92R WCI  30
MOAB/CYNLANDS  LGT RAIN  38  37  97 CALM      29.90F
PRICE          FOG       35  33  92 E7        29.90F VSB 1/2 WCI  29
ST GEORGE      CLOUDY    46  43  87 CALM      29.90S

$$

REGIONAL REPORTS     COLORADO/ARIZONA

CITY           SKY/WX    TMP DP  RH WIND       PRES   REMARKS
CRAIG, CO      LGT RAIN  33  32  96 CALM      29.91F FOG
GRAND JUNCTION LGT RAIN  38  38 100 CALM      29.90F FOG
RIFLE          LGT RAIN  36  34  92 CALM      29.91S FOG
MONTROSE       CLOUDY    38  36  92 NW3       29.92F
CORTEZ         LGT RAIN  35  34  96 SW6       29.91F FOG     WCI  30
PAGE, AZ       NOT AVBL
GRAND CANYON   CLOUDY    38  37  97 S3        29.88F
KINGMAN        CLOUDY    46  44  93 NE3       29.85S
FLAGSTAFF      CLOUDY    36  34  92 CALM      29.88S

$$

REGIONAL REPORTS    NEVADA/IDAHO/WYOMING

CITY           SKY/WX    TMP DP  RH WIND       PRES   REMARKS
LAS VEGAS, NV  LGT RAIN  49  46  90 S6        29.83S
ELY            CLOUDY    32  32 100 N14       29.97S WCI  22
ELKO           PTCLDY    27  24  89 CALM      30.06R
POCATELLO, ID  CLOUDY    33  33 100 SW12      30.10R WCI  24
BURLEY         CLOUDY    34  30  85 W6        30.11R WCI  29
EVANSTON, WY   LGT SNOW  30  27  88 NE9       29.99S FOG     WCI  22
ROCK SPRINGS   CLOUDY    27  26  96 NW3       29.99S FOG
KEMMERER       CLOUDY    30  28  93 N9        30.01S WCI  22

$$


USA.gov is the U.S. government's official web portal to all federal, state and local government web resources and services.